Вернуться в каталог

THORAD AGENA D DEB

АктивенLEO
NORAD 4169·DEBRIS·🇺🇸 United States

Запущен Sep 30, 1969 с Vandenberg Space Force Base

Loading…

Ближайшие Пролёты (ближайшие 24 часа)

TLE

СвежийSource: Space-Track

Эпоха: Sep 14, 2026, 01:31 UTC

1 04169U 69082AM  26257.06342101  .00001753  00000-0  32815-3 0  9992
2 04169  70.1821 182.0801 0033094 252.9830 106.7686 14.66201189982594

Отслеживайте THORAD AGENA D DEB в реальном времени с AllMySat

Download on the App Store